Time,TemperatureF,DewpointF,PressureIn,WindDirection,WindDirectionDegrees,WindSpeedMPH,WindSpeedGustMPH,Humidity,HourlyPrecipIn,Conditions,Clouds,dailyrainin,SoftwareType,DateUTC
2013-01-06 00:00:00,33.1,28.2,30.21,South,174,17.0,22.0,82,0.00,,OVC046,0.07,VWS V13.01,2013-01-06 05:00:00,
2013-01-06 00:01:00,33.1,28.2,30.21,SSW,196,15.0,22.0,82,0.00,,OVC046,0.07,VWS V13.01,2013-01-06 05:01:00,
2013-01-06 00:06:00,33.2,28.3,30.20,SSW,193,12.0,17.0,82,0.00,,OVC046,0.00,VWS V13.01,2013-01-06 05:06:00,
2013-01-06 00:07:00,33.2,28.0,30.20,South,191,14.0,17.0,81,0.00,,OVC046,0.00,VWS V13.01,2013-01-06 05:07:00,
2013-01-06 00:13:00,33.1,28.2,30.20,SSW,199,11.0,20.0,82,0.00,,OVC046,0.00,VWS V13.01,2013-01-06 05:13:00,
2013-01-06 00:17:00,33.1,28.2,30.20,SSW,200,18.0,20.0,82,0.00,,OVC046,0.00,VWS V13.01,2013-01-06 05:17:00,
2013-01-06 00:23:00,33.2,28.0,30.20,South,187,20.0,20.0,81,0.00,,OVC046,0.00,VWS V13.01,2013-01-06 05:23:00,
2013-01-06 00:27:00,33.1,28.2,30.20,SSW,192,10.0,20.0,82,0.00,,OVC046,0.00,VWS V13.01,2013-01-06 05:27:00,
2013-01-06 00:32:00,33.1,28.2,30.19,SSW,194,13.0,20.0,82,0.00,,OVC046,0.00,VWS V13.01,2013-01-06 05:32:00,
2013-01-06 00:37:00,33.0,28.1,30.19,South,188,14.0,18.0,82,0.00,,OVC046,0.00,VWS V13.01,2013-01-06 05:37:00,
2013-01-06 00:42:00,33.0,28.1,30.19,South,188,10.0,20.0,82,0.00,,OVC046,0.00,VWS V13.01,2013-01-06 05:42:00,
2013-01-06 00:47:00,33.1,28.2,30.19,SSW,192,11.0,20.0,82,0.00,,OVC046,0.00,VWS V13.01,2013-01-06 05:47:00,
2013-01-06 00:52:00,33.1,28.2,30.18,SSW,193,12.0,20.0,82,0.00,,OVC046,0.00,VWS V13.01,2013-01-06 05:52:00,
2013-01-06 00:57:00,33.1,28.2,30.18,SSW,202,13.0,20.0,82,0.00,,OVC046,0.00,VWS V13.01,2013-01-06 05:57:00,
2013-01-06 01:02:00,33.2,28.3,30.18,SSW,193,14.0,20.0,82,0.00,,OVC046,0.00,VWS V13.01,2013-01-06 06:02:00,
2013-01-06 01:07:00,33.4,28.2,30.18,SSW,205,13.0,20.0,81,0.00,,OVC046,0.00,VWS V13.01,2013-01-06 06:07:00,
2013-01-06 01:12:00,33.5,28.3,30.17,SSW,197,12.0,20.0,81,0.00,,OVC046,0.00,VWS V13.01,2013-01-06 06:12:00,
2013-01-06 01:17:00,33.5,28.3,30.17,SSW,203,13.0,20.0,81,0.00,,OVC046,0.00,VWS V13.01,2013-01-06 06:17:00,
2013-01-06 01:22:00,33.6,28.4,30.17,SSW,195,14.0,20.0,81,0.00,,OVC046,0.00,VWS V13.01,2013-01-06 06:22:00,
2013-01-06 01:27:00,33.6,28.4,30.17,SSW,198,14.0,20.0,81,0.00,,OVC046,0.00,VWS V13.01,2013-01-06 06:27:00,
2013-01-06 01:32:00,33.7,28.5,30.17,SSW,206,13.0,21.0,81,0.00,,OVC046,0.00,VWS V13.01,2013-01-06 06:32:00,
2013-01-06 01:37:00,33.7,28.5,30.17,SSW,199,12.0,20.0,81,0.00,,OVC046,0.00,VWS V13.01,2013-01-06 06:37:00,
2013-01-06 01:42:00,33.8,28.6,30.17,SSW,210,14.0,20.0,81,0.00,,OVC046,0.00,VWS V13.01,2013-01-06 06:42:00,
2013-01-06 01:48:00,33.9,28.7,30.16,SW,223,14.0,20.0,81,0.00,,OVC046,0.00,VWS V13.01,2013-01-06 06:48:00,
2013-01-06 01:53:00,33.9,28.7,30.16,SSW,213,15.0,20.0,81,0.00,,OVC046,0.00,VWS V13.01,2013-01-06 06:53:00,
2013-01-06 01:58:00,33.9,28.7,30.16,SSW,210,14.0,20.0,81,0.00,,OVC046,0.00,VWS V13.01,2013-01-06 06:58:00,
2013-01-06 02:03:00,33.9,28.7,30.16,SSW,206,11.0,20.0,81,0.00,,OVC046,0.00,VWS V13.01,2013-01-06 07:03:00,
2013-01-06 02:08:00,33.9,28.7,30.16,SSW,198,12.0,15.0,81,0.00,,OVC046,0.00,VWS V13.01,2013-01-06 07:08:00,
2013-01-06 02:13:00,33.9,29.0,30.16,South,189,10.0,16.0,82,0.00,,OVC046,0.00,VWS V13.01,2013-01-06 07:13:00,
2013-01-06 02:18:00,33.9,28.7,30.15,SSW,198,12.0,16.0,81,0.00,,OVC046,0.00,VWS V13.01,2013-01-06 07:18:00,
2013-01-06 02:23:00,33.9,29.0,30.15,SSW,199,13.0,16.0,82,0.00,,OVC046,0.00,VWS V13.01,2013-01-06 07:23:00,
2013-01-06 02:28:00,33.8,28.9,30.15,SSW,197,14.0,16.0,82,0.00,,OVC046,0.00,VWS V13.01,2013-01-06 07:28:00,
2013-01-06 02:33:00,33.8,28.9,30.15,SSW,193,10.0,17.0,82,0.00,,OVC046,0.00,VWS V13.01,2013-01-06 07:33:00,
2013-01-06 02:38:00,33.8,28.9,30.15,SSW,193,15.0,17.0,82,0.00,,OVC046,0.00,VWS V13.01,2013-01-06 07:38:00,
2013-01-06 02:43:00,33.7,29.1,30.15,SSW,197,15.0,19.0,83,0.00,,OVC046,0.00,VWS V13.01,2013-01-06 07:43:00,
2013-01-06 02:48:00,33.8,29.2,30.15,SSW,193,12.0,19.0,83,0.00,,OVC046,0.00,VWS V13.01,2013-01-06 07:48:00,
2013-01-06 02:53:00,33.9,29.0,30.15,South,191,10.0,19.0,82,0.00,,OVC046,0.00,VWS V13.01,2013-01-06 07:53:00,
2013-01-06 02:58:00,33.9,29.0,30.15,SSW,204,10.0,19.0,82,0.00,,OVC046,0.00,VWS V13.01,2013-01-06 07:58:00,
2013-01-06 03:03:00,33.9,29.0,30.15,SSW,194,10.0,19.0,82,0.00,,OVC046,0.00,VWS V13.01,2013-01-06 08:03:00,
2013-01-06 03:08:00,34.0,29.1,30.15,SSW,198,14.0,16.0,82,0.00,,OVC046,0.00,VWS V13.01,2013-01-06 08:08:00,
2013-01-06 03:13:00,34.0,29.1,30.15,SSW,198,14.0,16.0,82,0.00,,OVC046,0.00,VWS V13.01,2013-01-06 08:13:00,
2013-01-06 03:18:00,33.9,29.0,30.15,South,188,12.0,17.0,82,0.00,,OVC046,0.00,VWS V13.01,2013-01-06 08:18:00,
2013-01-06 03:23:00,33.9,29.3,30.15,South,190,13.0,17.0,83,0.00,,OVC046,0.00,VWS V13.01,2013-01-06 08:23:00,
2013-01-06 03:28:00,33.9,29.3,30.15,SSW,199,5.0,17.0,83,0.00,,OVC046,0.00,VWS V13.01,2013-01-06 08:28:00,
2013-01-06 03:33:00,33.9,29.3,30.15,SSW,200,13.0,17.0,83,0.00,,OVC046,0.00,VWS V13.01,2013-01-06 08:33:00,
2013-01-06 03:38:00,33.8,29.2,30.15,SSW,198,11.0,15.0,83,0.00,,OVC046,0.00,VWS V13.01,2013-01-06 08:38:00,
2013-01-06 03:43:00,33.8,29.2,30.14,South,184,11.0,15.0,83,0.00,,OVC046,0.00,VWS V13.01,2013-01-06 08:43:00,
2013-01-06 03:48:00,33.8,30.9,30.14,South,191,14.0,15.0,89,0.00,,OVC046,0.00,VWS V13.01,2013-01-06 08:48:00,
2013-01-06 03:53:00,33.8,29.2,30.14,SSW,196,11.0,15.0,83,0.00,,OVC046,0.00,VWS V13.01,2013-01-06 08:53:00,
2013-01-06 03:58:00,33.9,29.3,30.14,South,191,12.0,15.0,83,0.00,,OVC046,0.00,VWS V13.01,2013-01-06 08:58:00,
2013-01-06 04:03:00,34.1,29.2,30.13,South,190,13.0,15.0,82,0.00,,OVC046,0.00,VWS V13.01,2013-01-06 09:03:00,
2013-01-06 04:08:00,34.1,29.2,30.13,SSW,194,14.0,16.0,82,0.00,,OVC046,0.00,VWS V13.01,2013-01-06 09:08:00,
2013-01-06 04:13:00,34.2,29.3,30.13,SSW,200,10.0,16.0,82,0.00,,OVC046,0.00,VWS V13.01,2013-01-06 09:13:00,
2013-01-06 04:18:00,34.3,29.4,30.13,South,191,13.0,16.0,82,0.00,,OVC046,0.00,VWS V13.01,2013-01-06 09:18:00,
2013-01-06 04:23:00,34.4,29.5,30.13,SSW,193,10.0,17.0,82,0.00,,OVC046,0.00,VWS V13.01,2013-01-06 09:23:00,
2013-01-06 04:28:00,34.4,29.5,30.13,South,184,11.0,17.0,82,0.00,,OVC046,0.00,VWS V13.01,2013-01-06 09:28:00,
2013-01-06 04:33:00,34.4,29.5,30.13,SSW,208,12.0,17.0,82,0.00,,OVC046,0.00,VWS V13.01,2013-01-06 09:33:00,
2013-01-06 04:38:00,34.4,29.5,30.12,SSW,196,12.0,18.0,82,0.00,,OVC046,0.00,VWS V13.01,2013-01-06 09:38:00,
2013-01-06 04:43:00,34.4,29.5,30.12,SSW,202,13.0,18.0,82,0.00,,OVC046,0.00,VWS V13.01,2013-01-06 09:43:00,
2013-01-06 04:48:00,34.4,29.5,30.11,SSW,198,13.0,18.0,82,0.00,,OVC046,0.00,VWS V13.01,2013-01-06 09:48:00,
2013-01-06 04:53:00,34.4,29.5,30.11,SSW,193,10.0,18.0,82,0.00,,OVC046,0.00,VWS V13.01,2013-01-06 09:53:00,
2013-01-06 04:58:00,34.4,29.5,30.11,SSW,198,13.0,19.0,82,0.00,,OVC046,0.00,VWS V13.01,2013-01-06 09:58:00,
2013-01-06 05:03:00,34.4,29.5,30.11,SSW,194,11.0,19.0,82,0.00,,OVC046,0.00,VWS V13.01,2013-01-06 10:03:00,
2013-01-06 05:08:00,34.6,29.7,30.11,SSW,205,13.0,19.0,82,0.00,,OVC046,0.00,VWS V13.01,2013-01-06 10:08:00,
2013-01-06 05:13:00,34.7,29.8,30.11,SSW,197,11.0,19.0,82,0.00,,OVC046,0.00,VWS V13.01,2013-01-06 10:13:00,
2013-01-06 05:18:00,34.6,29.7,30.11,SSW,202,12.0,19.0,82,0.00,,OVC046,0.00,VWS V13.01,2013-01-06 10:18:00,
2013-01-06 05:23:00,34.8,29.6,30.10,SSW,206,12.0,19.0,81,0.00,,OVC046,0.00,VWS V13.01,2013-01-06 10:23:00,
2013-01-06 05:28:00,35.0,29.8,30.11,SW,224,15.0,19.0,81,0.00,,OVC046,0.00,VWS V13.01,2013-01-06 10:28:00,
2013-01-06 05:33:00,35.0,29.8,30.10,SW,217,21.0,25.0,81,0.00,,OVC046,0.00,VWS V13.01,2013-01-06 10:33:00,
2013-01-06 05:38:00,35.2,30.0,30.10,SSW,192,10.0,20.0,81,0.00,,OVC046,0.00,VWS V13.01,2013-01-06 10:38:00,
2013-01-06 05:43:00,35.2,30.0,30.10,SSW,208,8.0,20.0,81,0.00,,OVC046,0.00,VWS V13.01,2013-01-06 10:43:00,
2013-01-06 05:48:00,35.2,30.0,30.10,SSW,203,13.0,20.0,81,0.00,,OVC046,0.00,VWS V13.01,2013-01-06 10:48:00,
2013-01-06 05:53:00,35.1,29.9,30.10,SSW,202,11.0,20.0,81,0.00,,OVC046,0.00,VWS V13.01,2013-01-06 10:53:00,
2013-01-06 05:58:00,35.0,29.8,30.10,SSW,211,13.0,20.0,81,0.00,,OVC046,0.00,VWS V13.01,2013-01-06 10:58:00,
2013-01-06 06:03:00,35.0,29.8,30.10,SSW,210,9.0,20.0,81,0.00,,OVC046,0.00,VWS V13.01,2013-01-06 11:03:00,
2013-01-06 06:08:00,35.0,29.8,30.10,SSW,212,11.0,16.0,81,0.00,,OVC046,0.00,VWS V13.01,2013-01-06 11:08:00,
2013-01-06 06:13:00,35.0,29.8,30.10,SW,215,11.0,16.0,81,0.00,,OVC046,0.00,VWS V13.01,2013-01-06 11:13:00,
2013-01-06 06:18:00,34.9,29.7,30.10,SSW,205,10.0,16.0,81,0.00,,OVC046,0.00,VWS V13.01,2013-01-06 11:18:00,
2013-01-06 06:23:00,34.9,30.0,30.10,SSW,205,10.0,16.0,82,0.00,,OVC046,0.00,VWS V13.01,2013-01-06 11:23:00,
2013-01-06 06:28:00,34.8,29.9,30.10,SW,221,11.0,16.0,82,0.00,,OVC046,0.00,VWS V13.01,2013-01-06 11:28:00,
2013-01-06 06:33:00,34.8,29.9,30.10,South,191,3.0,16.0,82,0.00,,OVC046,0.00,VWS V13.01,2013-01-06 11:33:00,
2013-01-06 06:38:00,34.8,29.9,30.10,SSW,211,6.0,13.0,82,0.00,,OVC046,0.00,VWS V13.01,2013-01-06 11:38:00,
2013-01-06 06:43:00,34.8,29.9,30.10,SSW,209,3.0,13.0,82,0.00,,OVC046,0.00,VWS V13.01,2013-01-06 11:43:00,
2013-01-06 06:48:00,34.8,29.9,30.10,SSW,211,7.0,13.0,82,0.00,,OVC046,0.00,VWS V13.01,2013-01-06 11:48:00,
2013-01-06 06:53:00,34.8,29.9,30.10,SSW,205,13.0,13.0,82,0.00,,OVC046,0.00,VWS V13.01,2013-01-06 11:53:00,
2013-01-06 06:58:00,34.8,29.9,30.10,SSW,212,10.0,13.0,82,0.00,,OVC046,0.00,VWS V13.01,2013-01-06 11:58:00,
2013-01-06 07:03:00,34.9,30.0,30.10,SSW,210,10.0,14.0,82,0.00,,OVC046,0.00,VWS V13.01,2013-01-06 12:03:00,
2013-01-06 07:08:00,35.0,30.1,30.10,SSW,211,11.0,14.0,82,0.00,,OVC046,0.00,VWS V13.01,2013-01-06 12:08:00,
2013-01-06 07:13:00,35.0,30.1,30.10,SW,221,10.0,15.0,82,0.00,,OVC046,0.00,VWS V13.01,2013-01-06 12:13:00,
2013-01-06 07:18:00,35.0,30.1,30.10,SW,215,9.0,15.0,82,0.00,,OVC046,0.00,VWS V13.01,2013-01-06 12:18:00,
2013-01-06 07:23:00,35.0,30.1,30.10,SSW,213,12.0,17.0,82,0.00,,OVC046,0.00,VWS V13.01,2013-01-06 12:23:00,
2013-01-06 07:28:00,35.0,30.1,30.11,SSW,211,12.0,17.0,82,0.00,,OVC046,0.00,VWS V13.01,2013-01-06 12:28:00,
2013-01-06 07:33:00,35.1,30.2,30.11,SSW,212,12.0,17.0,82,0.00,,OVC046,0.00,VWS V13.01,2013-01-06 12:33:00,
2013-01-06 07:38:00,35.1,30.5,30.11,SW,214,9.0,17.0,83,0.00,,OVC046,0.00,VWS V13.01,2013-01-06 12:38:00,
2013-01-06 07:43:00,35.1,30.2,30.11,SSW,213,10.0,17.0,82,0.00,,OVC046,0.00,VWS V13.01,2013-01-06 12:43:00,
2013-01-06 07:48:00,35.1,30.2,30.11,SSW,196,13.0,17.0,82,0.00,,OVC046,0.00,VWS V13.01,2013-01-06 12:48:00,
2013-01-06 07:53:00,35.1,30.2,30.11,SSW,198,14.0,17.0,82,0.00,,OVC046,0.00,VWS V13.01,2013-01-06 12:53:00,
2013-01-06 07:58:00,35.0,30.1,30.11,SSW,200,11.0,17.0,82,0.00,,OVC046,0.00,VWS V13.01,2013-01-06 12:58:00,
2013-01-06 08:03:00,35.0,30.1,30.11,SSW,204,11.0,17.0,82,0.00,,OVC046,0.00,VWS V13.01,2013-01-06 13:03:00,
2013-01-06 08:08:00,34.9,30.0,30.11,SSW,205,11.0,18.0,82,0.00,,OVC046,0.00,VWS V13.01,2013-01-06 13:08:00,
2013-01-06 08:13:00,34.9,30.3,30.11,SSW,200,10.0,18.0,83,0.00,,OVC046,0.00,VWS V13.01,2013-01-06 13:13:00,
2013-01-06 08:18:00,34.9,30.3,30.11,SSW,192,12.0,18.0,83,0.00,,OVC046,0.00,VWS V13.01,2013-01-06 13:18:00,
2013-01-06 08:23:00,34.9,30.3,30.11,SSW,205,10.0,19.0,83,0.00,,OVC046,0.00,VWS V13.01,2013-01-06 13:23:00,
2013-01-06 08:28:00,35.0,30.4,30.11,SSW,211,14.0,19.0,83,0.01,,OVC046,0.01,VWS V13.01,2013-01-06 13:28:00,
2013-01-06 08:33:00,35.0,30.4,30.11,SW,223,13.0,19.0,83,0.01,,OVC046,0.01,VWS V13.01,2013-01-06 13:33:00,
2013-01-06 08:38:00,35.0,30.4,30.11,SW,217,15.0,18.0,83,0.01,,OVC046,0.01,VWS V13.01,2013-01-06 13:38:00,
2013-01-06 08:43:00,35.0,30.4,30.11,SW,231,13.0,18.0,83,0.01,,OVC046,0.01,VWS V13.01,2013-01-06 13:43:00,
2013-01-06 08:48:00,35.0,30.4,30.11,SSW,211,10.0,18.0,83,0.01,,OVC046,0.01,VWS V13.01,2013-01-06 13:48:00,
2013-01-06 08:53:00,35.1,30.5,30.11,SW,217,15.0,18.0,83,0.01,,OVC046,0.01,VWS V13.01,2013-01-06 13:53:00,
2013-01-06 08:58:00,35.1,30.5,30.11,SW,215,16.0,18.0,83,0.01,,OVC046,0.01,VWS V13.01,2013-01-06 13:58:00,
2013-01-06 09:03:00,35.1,30.5,30.11,SSW,206,14.0,18.0,83,0.01,,OVC046,0.01,VWS V13.01,2013-01-06 14:03:00,
2013-01-06 09:08:00,35.2,30.6,30.11,SW,223,10.0,18.0,83,0.01,,OVC046,0.01,VWS V13.01,2013-01-06 14:08:00,
2013-01-06 09:13:00,35.2,30.6,30.11,SSW,212,10.0,18.0,83,0.01,,OVC046,0.01,VWS V13.01,2013-01-06 14:13:00,
2013-01-06 09:18:00,35.2,30.6,30.12,SW,229,12.0,18.0,83,0.01,,OVC046,0.01,VWS V13.01,2013-01-06 14:18:00,
2013-01-06 09:23:00,35.3,30.7,30.12,SW,227,10.0,18.0,83,0.01,,OVC046,0.01,VWS V13.01,2013-01-06 14:23:00,
2013-01-06 09:28:00,35.5,30.6,30.12,SW,222,13.0,18.0,82,0.01,,OVC046,0.01,VWS V13.01,2013-01-06 14:28:00,
2013-01-06 09:33:00,35.4,30.5,30.12,SW,226,13.0,18.0,82,0.01,,OVC046,0.01,VWS V13.01,2013-01-06 14:33:00,
2013-01-06 09:38:00,35.4,30.5,30.12,SW,225,7.0,17.0,82,0.00,,OVC046,0.01,VWS V13.01,2013-01-06 14:38:00,
2013-01-06 09:43:00,35.4,30.5,30.12,SW,232,11.0,17.0,82,0.00,,OVC046,0.01,VWS V13.01,2013-01-06 14:43:00,
2013-01-06 09:48:00,35.4,30.5,30.12,SW,229,13.0,17.0,82,0.00,,OVC046,0.01,VWS V13.01,2013-01-06 14:48:00,
2013-01-06 09:53:00,35.3,30.7,30.12,SW,225,9.0,17.0,83,0.00,,OVC046,0.01,VWS V13.01,2013-01-06 14:53:00,
2013-01-06 09:58:00,35.4,30.5,30.12,SSW,211,9.0,17.0,82,0.00,,OVC046,0.01,VWS V13.01,2013-01-06 14:58:00,
2013-01-06 10:03:00,35.3,30.7,30.12,SW,221,12.0,17.0,83,0.01,,OVC046,0.02,VWS V13.01,2013-01-06 15:03:00,
2013-01-06 10:08:00,35.3,30.7,30.12,SW,219,14.0,16.0,83,0.01,,OVC046,0.02,VWS V13.01,2013-01-06 15:08:00,
2013-01-06 10:13:00,35.4,30.8,30.12,SW,217,11.0,17.0,83,0.01,,OVC046,0.02,VWS V13.01,2013-01-06 15:13:00,
2013-01-06 10:18:00,35.3,30.7,30.12,SW,217,12.0,17.0,83,0.01,,OVC046,0.02,VWS V13.01,2013-01-06 15:18:00,
2013-01-06 10:23:00,35.3,30.7,30.12,SSW,207,12.0,17.0,83,0.01,,OVC046,0.02,VWS V13.01,2013-01-06 15:23:00,
2013-01-06 10:28:00,35.3,30.7,30.13,SW,231,8.0,17.0,83,0.01,,OVC046,0.02,VWS V13.01,2013-01-06 15:28:00,
2013-01-06 10:33:00,35.3,30.7,30.13,SW,233,10.0,17.0,83,0.01,,OVC046,0.02,VWS V13.01,2013-01-06 15:33:00,
2013-01-06 10:38:00,35.3,30.7,30.13,SW,225,12.0,18.0,83,0.01,,OVC046,0.02,VWS V13.01,2013-01-06 15:38:00,
2013-01-06 10:43:00,35.3,30.4,30.13,SSW,211,20.0,20.0,82,0.01,,OVC046,0.02,VWS V13.01,2013-01-06 15:43:00,
2013-01-06 10:48:00,35.3,30.4,30.13,SW,235,16.0,21.0,82,0.02,,OVC046,0.03,VWS V13.01,2013-01-06 15:48:00,
2013-01-06 10:53:00,35.3,30.4,30.13,WSW,246,20.0,21.0,82,0.02,,OVC046,0.03,VWS V13.01,2013-01-06 15:53:00,
2013-01-06 10:58:00,33.3,28.1,30.14,West,281,23.0,37.0,81,0.02,,OVC046,0.03,VWS V13.01,2013-01-06 15:58:00,
2013-01-06 11:03:00,31.9,29.0,30.15,WNW,285,22.0,37.0,89,0.02,,OVC046,0.03,VWS V13.01,2013-01-06 16:03:00,
2013-01-06 11:08:00,31.5,27.2,30.15,WNW,286,24.0,27.0,84,0.01,,OVC046,0.03,VWS V13.01,2013-01-06 16:08:00,
2013-01-06 11:13:00,31.2,26.9,30.16,West,273,18.0,27.0,84,0.01,,OVC046,0.03,VWS V13.01,2013-01-06 16:13:00,
2013-01-06 11:18:00,31.0,27.0,30.16,WNW,290,19.0,27.0,85,0.01,,OVC046,0.03,VWS V13.01,2013-01-06 16:18:00,
2013-01-06 11:23:00,30.5,26.5,30.16,WNW,296,19.0,27.0,85,0.01,,OVC046,0.03,VWS V13.01,2013-01-06 16:23:00,
2013-01-06 11:28:00,30.3,26.6,30.16,West,264,17.0,27.0,86,0.01,,OVC046,0.03,VWS V13.01,2013-01-06 16:28:00,
2013-01-06 11:33:00,30.0,26.3,30.16,West,277,14.0,27.0,86,0.01,,OVC046,0.03,VWS V13.01,2013-01-06 16:33:00,
2013-01-06 11:38:00,29.9,26.5,30.16,West,281,17.0,21.0,87,0.01,,OVC046,0.03,VWS V13.01,2013-01-06 16:38:00,
2013-01-06 11:43:00,29.8,26.1,30.16,West,277,19.0,21.0,86,0.01,,OVC046,0.03,VWS V13.01,2013-01-06 16:43:00,
2013-01-06 11:48:00,29.8,25.9,30.16,West,276,16.0,22.0,85,0.01,,OVC046,0.03,VWS V13.01,2013-01-06 16:48:00,
2013-01-06 11:53:00,29.9,26.0,30.16,WNW,286,15.0,22.0,85,0.01,,OVC046,0.03,VWS V13.01,2013-01-06 16:53:00,
2013-01-06 11:58:00,29.8,25.9,30.16,West,269,17.0,22.0,85,0.01,,OVC046,0.03,VWS V13.01,2013-01-06 16:58:00,
2013-01-06 12:03:00,29.8,25.9,30.16,West,265,20.0,22.0,85,0.01,,OVC046,0.03,VWS V13.01,2013-01-06 17:03:00,
2013-01-06 12:08:00,29.6,25.4,30.16,WSW,252,22.0,24.0,84,0.00,,OVC046,0.03,VWS V13.01,2013-01-06 17:08:00,
2013-01-06 12:13:00,29.5,25.3,30.16,West,269,17.0,24.0,84,0.00,,OVC046,0.03,VWS V13.01,2013-01-06 17:13:00,
2013-01-06 12:18:00,29.3,24.8,30.16,West,267,16.0,24.0,83,0.00,,OVC046,0.03,VWS V13.01,2013-01-06 17:18:00,
2013-01-06 12:23:00,29.1,24.6,30.16,West,269,13.0,24.0,83,0.00,,OVC046,0.03,VWS V13.01,2013-01-06 17:23:00,
2013-01-06 12:28:00,28.9,24.4,30.16,WNW,282,22.0,24.0,83,0.00,,OVC046,0.03,VWS V13.01,2013-01-06 17:28:00,
2013-01-06 12:33:00,28.8,24.0,30.16,West,280,13.0,24.0,82,0.00,,OVC046,0.03,VWS V13.01,2013-01-06 17:33:00,
2013-01-06 12:38:00,28.8,24.3,30.16,West,277,19.0,23.0,83,0.00,,OVC046,0.03,VWS V13.01,2013-01-06 17:38:00,
2013-01-06 12:43:00,28.8,24.3,30.16,West,273,16.0,23.0,83,0.00,,OVC046,0.03,VWS V13.01,2013-01-06 17:43:00,
2013-01-06 12:48:00,28.7,23.9,30.16,West,269,16.0,23.0,82,0.00,,OVC046,0.03,VWS V13.01,2013-01-06 17:48:00,
2013-01-06 12:53:00,28.4,23.6,30.17,West,264,22.0,27.0,82,0.00,,OVC046,0.03,VWS V13.01,2013-01-06 17:53:00,
2013-01-06 12:58:00,28.1,23.6,30.17,West,271,19.0,27.0,83,0.00,,OVC046,0.03,VWS V13.01,2013-01-06 17:58:00,
2013-01-06 13:03:00,27.9,23.4,30.17,West,267,18.0,27.0,83,0.00,,OVC046,0.03,VWS V13.01,2013-01-06 18:03:00,
2013-01-06 13:08:00,27.6,23.1,30.17,WNW,286,17.0,23.0,83,0.00,,OVC046,0.03,VWS V13.01,2013-01-06 18:08:00,
2013-01-06 13:13:00,27.3,22.5,30.17,West,275,16.0,23.0,82,0.00,,OVC046,0.03,VWS V13.01,2013-01-06 18:13:00,
2013-01-06 13:18:00,27.2,22.1,30.17,West,276,17.0,25.0,81,0.00,,OVC046,0.03,VWS V13.01,2013-01-06 18:18:00,
2013-01-06 13:23:00,27.3,22.2,30.17,West,277,20.0,25.0,81,0.00,,OVC046,0.03,VWS V13.01,2013-01-06 18:23:00,
2013-01-06 13:27:00,27.3,22.0,30.17,WNW,289,16.0,25.0,80,0.00,,OVC046,0.03,VWS V13.01,2013-01-06 18:27:00,
2013-01-06 13:32:00,27.3,22.0,30.17,West,267,18.0,25.0,80,0.00,,OVC046,0.03,VWS V13.01,2013-01-06 18:32:00,
2013-01-06 13:37:00,27.1,21.8,30.18,West,277,21.0,28.0,80,0.00,,OVC046,0.03,VWS V13.01,2013-01-06 18:37:00,
2013-01-06 13:42:00,26.6,21.0,30.18,West,275,18.0,29.0,79,0.00,,OVC046,0.03,VWS V13.01,2013-01-06 18:42:00,
2013-01-06 13:47:00,26.3,20.7,30.18,West,279,27.0,29.0,79,0.00,,OVC046,0.03,VWS V13.01,2013-01-06 18:47:00,
2013-01-06 13:52:00,26.0,20.4,30.19,WNW,284,21.0,30.0,79,0.00,,OVC046,0.03,VWS V13.01,2013-01-06 18:52:00,
2013-01-06 13:57:00,25.8,20.2,30.19,West,271,19.0,30.0,79,0.00,,OVC046,0.03,VWS V13.01,2013-01-06 18:57:00,
2013-01-06 14:02:00,25.8,20.2,30.19,West,277,27.0,30.0,79,0.00,,OVC046,0.03,VWS V13.01,2013-01-06 19:02:00,
2013-01-06 14:07:00,25.8,20.2,30.19,West,280,19.0,26.0,79,0.00,,OVC046,0.03,VWS V13.01,2013-01-06 19:07:00,
2013-01-06 14:12:00,25.8,20.2,30.19,WNW,295,24.0,27.0,79,0.00,,OVC046,0.03,VWS V13.01,2013-01-06 19:12:00,
2013-01-06 14:17:00,25.7,20.1,30.20,WNW,298,22.0,28.0,79,0.00,,OVC046,0.03,VWS V13.01,2013-01-06 19:17:00,
2013-01-06 14:22:00,25.5,19.9,30.20,West,280,14.0,28.0,79,0.00,,OVC046,0.03,VWS V13.01,2013-01-06 19:22:00,
2013-01-06 14:27:00,25.4,19.8,30.21,WNW,286,15.0,28.0,79,0.00,,OVC046,0.03,VWS V13.01,2013-01-06 19:27:00,
2013-01-06 14:32:00,25.1,19.8,30.21,WNW,288,23.0,28.0,80,0.00,,OVC046,0.03,VWS V13.01,2013-01-06 19:32:00,
2013-01-06 14:37:00,24.9,19.6,30.22,WNW,296,20.0,22.0,80,0.00,,OVC046,0.03,VWS V13.01,2013-01-06 19:37:00,
2013-01-06 14:42:00,24.8,19.5,30.22,NW,304,20.0,25.0,80,0.00,,OVC046,0.03,VWS V13.01,2013-01-06 19:42:00,
2013-01-06 14:47:00,24.7,19.1,30.22,NW,311,16.0,25.0,79,0.00,,OVC046,0.03,VWS V13.01,2013-01-06 19:47:00,
2013-01-06 14:53:00,24.6,19.3,30.23,WNW,300,19.0,25.0,80,0.00,,OVC046,0.03,VWS V13.01,2013-01-06 19:53:00,
2013-01-06 14:58:00,24.5,18.9,30.23,WNW,290,22.0,25.0,79,0.00,,OVC046,0.03,VWS V13.01,2013-01-06 19:58:00,
2013-01-06 15:03:00,24.4,18.8,30.24,WNW,296,20.0,25.0,79,0.00,,OVC046,0.03,VWS V13.01,2013-01-06 20:03:00,
2013-01-06 15:08:00,24.5,19.2,30.24,WNW,300,17.0,24.0,80,0.00,,OVC046,0.03,VWS V13.01,2013-01-06 20:08:00,
2013-01-06 15:11:00,24.5,19.2,30.25,West,281,20.0,24.0,80,0.00,,OVC046,0.03,VWS V13.01,2013-01-06 20:11:00,
2013-01-06 15:13:00,24.4,19.1,30.25,NW,305,20.0,24.0,80,0.00,,OVC046,0.03,VWS V13.01,2013-01-06 20:13:00,
2013-01-06 15:18:00,24.3,19.0,30.25,WNW,288,22.0,26.0,80,0.00,,OVC046,0.03,VWS V13.01,2013-01-06 20:18:00,
2013-01-06 15:23:00,24.2,18.9,30.26,WNW,294,19.0,26.0,80,0.00,,OVC046,0.03,VWS V13.01,2013-01-06 20:23:00,
2013-01-06 15:28:00,24.2,18.9,30.26,West,275,20.0,26.0,80,0.00,,OVC046,0.03,VWS V13.01,2013-01-06 20:28:00,
2013-01-06 15:33:00,24.2,19.2,30.26,WNW,284,14.0,26.0,81,0.00,,OVC046,0.03,VWS V13.01,2013-01-06 20:33:00,
2013-01-06 15:38:00,24.2,18.9,30.27,West,273,18.0,24.0,80,0.00,,OVC046,0.03,VWS V13.01,2013-01-06 20:38:00,
2013-01-06 15:43:00,24.2,18.9,30.27,West,279,17.0,24.0,80,0.00,,OVC046,0.03,VWS V13.01,2013-01-06 20:43:00,
2013-01-06 15:48:00,24.3,19.0,30.27,West,277,20.0,24.0,80,0.00,,OVC046,0.03,VWS V13.01,2013-01-06 20:48:00,
2013-01-06 15:53:00,24.4,19.1,30.27,West,273,18.0,24.0,80,0.00,,OVC046,0.03,VWS V13.01,2013-01-06 20:53:00,
2013-01-06 15:58:00,24.5,19.2,30.28,West,266,17.0,24.0,80,0.00,,OVC046,0.03,VWS V13.01,2013-01-06 20:58:00,
2013-01-06 16:01:00,24.5,19.2,30.28,West,267,15.0,24.0,80,0.00,,OVC046,0.03,VWS V13.01,2013-01-06 21:01:00,
2013-01-06 16:06:00,24.7,19.4,30.28,West,270,14.0,18.0,80,0.00,,OVC046,0.03,VWS V13.01,2013-01-06 21:06:00,
2013-01-06 16:11:00,24.7,19.4,30.28,West,263,16.0,18.0,80,0.00,,OVC046,0.03,VWS V13.01,2013-01-06 21:11:00,
2013-01-06 16:16:00,24.8,19.8,30.29,West,270,13.0,19.0,81,0.00,,OVC046,0.03,VWS V13.01,2013-01-06 21:16:00,
2013-01-06 16:21:00,24.8,19.8,30.29,West,274,14.0,19.0,81,0.00,,OVC046,0.03,VWS V13.01,2013-01-06 21:21:00,
2013-01-06 16:26:00,24.8,19.8,30.30,West,269,13.0,19.0,81,0.00,,OVC046,0.03,VWS V13.01,2013-01-06 21:26:00,
2013-01-06 16:31:00,24.8,19.8,30.30,West,262,14.0,19.0,81,0.00,,OVC046,0.03,VWS V13.01,2013-01-06 21:31:00,
2013-01-06 16:36:00,24.9,19.9,30.30,West,265,13.0,19.0,81,0.00,,OVC046,0.03,VWS V13.01,2013-01-06 21:36:00,
2013-01-06 16:41:00,24.9,19.9,30.30,West,271,13.0,19.0,81,0.00,,OVC046,0.03,VWS V13.01,2013-01-06 21:41:00,
2013-01-06 16:46:00,25.0,20.3,30.31,West,272,14.0,19.0,82,0.00,,OVC046,0.03,VWS V13.01,2013-01-06 21:46:00,
2013-01-06 16:51:00,25.0,20.3,30.31,West,269,13.0,19.0,82,0.00,,OVC046,0.03,VWS V13.01,2013-01-06 21:51:00,
2013-01-06 16:56:00,25.1,20.4,30.31,West,279,13.0,19.0,82,0.00,,OVC046,0.03,VWS V13.01,2013-01-06 21:56:00,
2013-01-06 17:01:00,25.1,20.4,30.32,West,265,14.0,19.0,82,0.00,,OVC046,0.03,VWS V13.01,2013-01-06 22:01:00,
2013-01-06 17:06:00,25.1,20.4,30.32,West,263,15.0,17.0,82,0.00,,OVC046,0.03,VWS V13.01,2013-01-06 22:06:00,
2013-01-06 17:11:00,25.2,20.5,30.32,West,271,13.0,17.0,82,0.00,,OVC046,0.03,VWS V13.01,2013-01-06 22:11:00,
2013-01-06 17:16:00,25.2,20.5,30.32,West,261,12.0,17.0,82,0.00,,OVC046,0.03,VWS V13.01,2013-01-06 22:16:00,
2013-01-06 17:21:00,25.2,20.5,30.32,West,265,13.0,17.0,82,0.00,,OVC046,0.03,VWS V13.01,2013-01-06 22:21:00,
2013-01-06 17:26:00,25.2,20.5,30.32,West,263,13.0,17.0,82,0.00,,OVC046,0.03,VWS V13.01,2013-01-06 22:26:00,
2013-01-06 17:31:00,25.3,20.6,30.31,WSW,252,12.0,19.0,82,0.00,,OVC046,0.03,VWS V13.01,2013-01-06 22:31:00,
2013-01-06 17:36:00,25.3,20.6,30.32,West,262,14.0,18.0,82,0.00,,OVC046,0.03,VWS V13.01,2013-01-06 22:36:00,
2013-01-06 17:41:00,25.3,20.6,30.32,West,264,12.0,18.0,82,0.00,,OVC046,0.03,VWS V13.01,2013-01-06 22:41:00,
2013-01-06 17:46:00,25.4,20.7,30.33,West,273,16.0,19.0,82,0.00,,OVC046,0.03,VWS V13.01,2013-01-06 22:46:00,
2013-01-06 17:51:00,25.5,20.8,30.33,West,269,12.0,19.0,82,0.00,,OVC046,0.03,VWS V13.01,2013-01-06 22:51:00,
2013-01-06 17:56:00,25.6,20.9,30.34,West,271,11.0,19.0,82,0.00,,OVC046,0.03,VWS V13.01,2013-01-06 22:56:00,
2013-01-06 18:01:00,25.6,20.9,30.34,West,277,11.0,19.0,82,0.00,,OVC046,0.03,VWS V13.01,2013-01-06 23:01:00,
2013-01-06 18:06:00,25.6,20.9,30.34,West,279,14.0,15.0,82,0.00,,OVC046,0.03,VWS V13.01,2013-01-06 23:06:00,
2013-01-06 18:11:00,25.7,21.0,30.34,West,264,16.0,16.0,82,0.00,,OVC046,0.03,VWS V13.01,2013-01-06 23:11:00,
2013-01-06 18:16:00,25.7,21.0,30.35,West,269,12.0,16.0,82,0.00,,OVC046,0.03,VWS V13.01,2013-01-06 23:16:00,
2013-01-06 18:21:00,25.7,21.0,30.35,West,264,13.0,16.0,82,0.00,,OVC046,0.03,VWS V13.01,2013-01-06 23:21:00,
2013-01-06 18:26:00,25.7,21.0,30.35,West,269,14.0,16.0,82,0.00,,OVC046,0.03,VWS V13.01,2013-01-06 23:26:00,
2013-01-06 18:31:00,25.8,21.1,30.36,West,276,15.0,16.0,82,0.00,,OVC046,0.03,VWS V13.01,2013-01-06 23:31:00,
2013-01-06 18:36:00,25.7,21.0,30.36,West,261,13.0,16.0,82,0.00,,OVC046,0.03,VWS V13.01,2013-01-06 23:36:00,
2013-01-06 18:41:00,25.7,21.3,30.36,West,268,14.0,16.0,83,0.00,,OVC046,0.03,VWS V13.01,2013-01-06 23:41:00,
2013-01-06 18:46:00,25.8,21.4,30.37,West,267,15.0,18.0,83,0.00,,OVC046,0.03,VWS V13.01,2013-01-06 23:46:00,
2013-01-06 18:51:00,25.7,21.3,30.37,West,261,14.0,18.0,83,0.00,,OVC046,0.03,VWS V13.01,2013-01-06 23:51:00,
2013-01-06 18:56:00,25.7,21.5,30.38,West,261,15.0,18.0,84,0.00,,OVC046,0.03,VWS V13.01,2013-01-06 23:56:00,
2013-01-06 19:01:00,25.7,21.5,30.38,West,262,14.0,18.0,84,0.00,,OVC046,0.03,VWS V13.01,2013-01-07 00:01:00,
2013-01-06 19:06:00,25.7,21.5,30.38,West,259,16.0,17.0,84,0.00,,OVC046,0.03,VWS V13.01,2013-01-07 00:06:00,
2013-01-06 19:11:00,25.7,21.5,30.38,West,260,15.0,19.0,84,0.00,,OVC046,0.03,VWS V13.01,2013-01-07 00:11:00,
2013-01-06 19:16:00,25.8,21.6,30.39,WSW,257,12.0,19.0,84,0.00,,OVC046,0.03,VWS V13.01,2013-01-07 00:16:00,
2013-01-06 19:21:00,25.8,21.6,30.39,West,263,14.0,19.0,84,0.00,,OVC046,0.03,VWS V13.01,2013-01-07 00:21:00,
2013-01-06 19:26:00,25.9,21.7,30.39,WSW,256,12.0,19.0,84,0.00,,OVC046,0.03,VWS V13.01,2013-01-07 00:26:00,
2013-01-06 19:31:00,25.9,21.7,30.39,West,263,15.0,19.0,84,0.00,,OVC046,0.03,VWS V13.01,2013-01-07 00:31:00,
2013-01-06 19:36:00,26.0,21.8,30.39,West,259,12.0,14.0,84,0.00,,OVC046,0.03,VWS V13.01,2013-01-07 00:36:00,
2013-01-06 19:41:00,26.1,21.9,30.40,West,259,14.0,16.0,84,0.00,,OVC046,0.03,VWS V13.01,2013-01-07 00:41:00,
2013-01-06 19:46:00,26.2,22.0,30.40,WSW,258,11.0,16.0,84,0.00,,OVC046,0.03,VWS V13.01,2013-01-07 00:46:00,
2013-01-06 19:51:00,26.2,22.0,30.39,WSW,254,13.0,16.0,84,0.00,,OVC046,0.03,VWS V13.01,2013-01-07 00:51:00,
2013-01-06 19:56:00,26.2,22.0,30.39,WSW,254,9.0,16.0,84,0.00,,OVC046,0.03,VWS V13.01,2013-01-07 00:56:00,
2013-01-06 20:01:00,26.3,22.1,30.39,West,259,12.0,16.0,84,0.00,,OVC046,0.03,VWS V13.01,2013-01-07 01:01:00,
2013-01-06 20:06:00,26.3,22.1,30.39,West,259,11.0,13.0,84,0.00,,OVC046,0.03,VWS V13.01,2013-01-07 01:06:00,
2013-01-06 20:11:00,26.4,22.2,30.40,WSW,258,11.0,14.0,84,0.00,,OVC046,0.03,VWS V13.01,2013-01-07 01:11:00,
2013-01-06 20:16:00,26.5,22.3,30.40,West,259,11.0,14.0,84,0.00,,OVC046,0.03,VWS V13.01,2013-01-07 01:16:00,
2013-01-06 20:21:00,26.6,22.4,30.40,West,260,11.0,15.0,84,0.00,,OVC046,0.03,VWS V13.01,2013-01-07 01:21:00,
2013-01-06 20:26:00,26.6,22.4,30.40,West,260,12.0,15.0,84,0.00,,OVC046,0.03,VWS V13.01,2013-01-07 01:26:00,
2013-01-06 20:31:00,26.7,22.5,30.41,West,259,12.0,15.0,84,0.00,,OVC046,0.03,VWS V13.01,2013-01-07 01:31:00,
2013-01-06 20:36:00,26.7,22.5,30.41,West,259,11.0,14.0,84,0.00,,OVC046,0.03,VWS V13.01,2013-01-07 01:36:00,
2013-01-06 20:41:00,26.7,22.5,30.41,WSW,257,11.0,15.0,84,0.00,,OVC046,0.03,VWS V13.01,2013-01-07 01:41:00,
2013-01-06 20:46:00,26.6,22.4,30.41,WSW,257,10.0,15.0,84,0.00,,OVC046,0.03,VWS V13.01,2013-01-07 01:46:00,
2013-01-06 20:51:00,26.4,22.0,30.42,WSW,257,11.0,15.0,83,0.00,,OVC046,0.03,VWS V13.01,2013-01-07 01:51:00,
2013-01-06 20:56:00,26.2,21.8,30.42,WSW,257,11.0,15.0,83,0.00,,OVC046,0.03,VWS V13.01,2013-01-07 01:56:00,
2013-01-06 21:01:00,25.9,21.5,30.42,West,259,7.0,15.0,83,0.00,,OVC046,0.03,VWS V13.01,2013-01-07 02:01:00,
2013-01-06 21:06:00,25.7,21.3,30.42,West,259,8.0,11.0,83,0.00,,OVC046,0.03,VWS V13.01,2013-01-07 02:06:00,
2013-01-06 21:11:00,25.7,21.3,30.42,West,264,6.0,13.0,83,0.00,,OVC046,0.03,VWS V13.01,2013-01-07 02:11:00,
2013-01-06 21:16:00,25.4,20.7,30.41,West,264,7.0,13.0,82,0.00,,OVC046,0.03,VWS V13.01,2013-01-07 02:16:00,
2013-01-06 21:21:00,25.0,20.3,30.41,West,264,7.0,13.0,82,0.00,,OVC046,0.03,VWS V13.01,2013-01-07 02:21:00,
2013-01-06 21:26:00,24.7,20.3,30.42,West,264,6.0,13.0,83,0.00,,OVC046,0.03,VWS V13.01,2013-01-07 02:26:00,
2013-01-06 21:31:00,24.4,20.0,30.42,West,264,2.0,13.0,83,0.00,,OVC046,0.03,VWS V13.01,2013-01-07 02:31:00,
2013-01-06 21:36:00,24.3,20.2,30.42,West,264,2.0,4.0,84,0.00,,OVC046,0.03,VWS V13.01,2013-01-07 02:36:00,
2013-01-06 21:41:00,24.4,20.3,30.42,West,264,3.0,4.0,84,0.00,,OVC046,0.03,VWS V13.01,2013-01-07 02:41:00,
2013-01-06 21:46:00,24.5,20.4,30.42,West,264,2.0,4.0,84,0.00,,OVC046,0.03,VWS V13.01,2013-01-07 02:46:00,
2013-01-06 21:51:00,24.7,20.8,30.42,West,264,2.0,4.0,85,0.00,,OVC046,0.03,VWS V13.01,2013-01-07 02:51:00,
2013-01-06 21:56:00,24.9,21.0,30.42,West,264,5.0,9.0,85,0.00,,OVC046,0.03,VWS V13.01,2013-01-07 02:56:00,
2013-01-06 22:01:00,25.3,21.4,30.42,West,264,4.0,9.0,85,0.00,,OVC046,0.03,VWS V13.01,2013-01-07 03:01:00,
2013-01-06 22:06:00,25.5,21.6,30.43,West,264,3.0,3.0,85,0.00,,OVC046,0.03,VWS V13.01,2013-01-07 03:06:00,
2013-01-06 22:11:00,25.8,21.6,30.43,West,264,2.0,3.0,84,0.00,,OVC046,0.03,VWS V13.01,2013-01-07 03:11:00,
2013-01-06 22:16:00,26.0,21.8,30.43,West,264,2.0,3.0,84,0.00,,OVC046,0.03,VWS V13.01,2013-01-07 03:16:00,
2013-01-06 22:21:00,26.2,22.0,30.43,West,264,3.0,4.0,84,0.00,,OVC046,0.03,VWS V13.01,2013-01-07 03:21:00,
2013-01-06 22:26:00,26.3,22.1,30.43,West,264,2.0,5.0,84,0.00,,OVC046,0.03,VWS V13.01,2013-01-07 03:26:00,
2013-01-06 22:31:00,26.3,22.1,30.44,West,264,2.0,5.0,84,0.00,,OVC046,0.03,VWS V13.01,2013-01-07 03:31:00,
2013-01-06 22:36:00,26.4,22.2,30.44,West,264,1.0,2.0,84,0.00,,OVC046,0.03,VWS V13.01,2013-01-07 03:36:00,
2013-01-06 22:41:00,26.5,22.3,30.44,West,264,2.0,3.0,84,0.00,,OVC046,0.03,VWS V13.01,2013-01-07 03:41:00,
2013-01-06 22:46:00,26.6,22.4,30.44,West,264,2.0,3.0,84,0.00,,OVC046,0.03,VWS V13.01,2013-01-07 03:46:00,
2013-01-06 22:51:00,26.7,22.5,30.45,West,264,3.0,3.0,84,0.00,,OVC046,0.03,VWS V13.01,2013-01-07 03:51:00,
2013-01-06 22:56:00,26.7,22.5,30.45,West,264,1.0,3.0,84,0.00,,OVC046,0.03,VWS V13.01,2013-01-07 03:56:00,
2013-01-06 23:01:00,26.8,22.6,30.45,West,264,1.0,3.0,84,0.00,,OVC046,0.03,VWS V13.01,2013-01-07 04:01:00,
2013-01-06 23:06:00,26.6,22.4,30.46,West,264,0.0,2.0,84,0.00,,OVC046,0.03,VWS V13.01,2013-01-07 04:06:00,
2013-01-06 23:11:00,26.6,22.4,30.46,West,264,3.0,4.0,84,0.00,,OVC046,0.03,VWS V13.01,2013-01-07 04:11:00,
2013-01-06 23:16:00,27.2,23.3,30.46,West,264,4.0,5.0,85,0.00,,OVC046,0.03,VWS V13.01,2013-01-07 04:16:00,
2013-01-06 23:21:00,27.7,23.5,30.46,West,264,4.0,5.0,84,0.00,,OVC046,0.03,VWS V13.01,2013-01-07 04:21:00,
2013-01-06 23:26:00,27.9,23.4,30.46,West,264,9.0,10.0,83,0.00,,OVC046,0.03,VWS V13.01,2013-01-07 04:26:00,
2013-01-06 23:31:00,28.0,23.5,30.46,West,264,9.0,10.0,83,0.00,,OVC046,0.03,VWS V13.01,2013-01-07 04:31:00,
2013-01-06 23:36:00,28.1,23.3,30.46,West,264,10.0,11.0,82,0.00,,OVC046,0.03,VWS V13.01,2013-01-07 04:36:00,
2013-01-06 23:41:00,28.1,23.3,30.46,West,264,8.0,12.0,82,0.00,,OVC046,0.03,VWS V13.01,2013-01-07 04:41:00,
2013-01-06 23:46:00,28.1,23.3,30.46,West,264,4.0,12.0,82,0.00,,OVC046,0.03,VWS V13.01,2013-01-07 04:46:00,
2013-01-06 23:51:00,28.1,23.3,30.46,West,264,7.0,12.0,82,0.00,,OVC046,0.03,VWS V13.01,2013-01-07 04:51:00,
2013-01-06 23:56:00,28.1,23.3,30.46,West,264,3.0,12.0,82,0.00,,OVC046,0.03,VWS V13.01,2013-01-07 04:56:00,